San Jose, Costa Rica

10:28 AM CST on June 26, 2017 (GMT -0600)
Juan Santamaria International

Weather History for MROC - May, 2014

Change the Weather History Date:

Saturday, May 24, 2014

  Actual Average Record
Temperature  
Mean Temperature 75 °F -  
Max Temperature 84 °F 80 °F 89 °F (2016)
Min Temperature 66 °F 65 °F 62 °F (2003)
Cooling Degree Days 10    
Growing Degree Days 25 (Base 50)    
Moisture  
Dew Point 64 °F    
Average Humidity 72    
Maximum Humidity 94    
Minimum Humidity 44    
Precipitation  
Precipitation 0.00 in 0.36 in - ()
Sea Level Pressure  
Sea Level Pressure 29.98 in    
Wind  
Wind Speed 5 mph ()    
Max Wind Speed 12 mph    
Max Gust Speed -    
Visibility 8.1 miles    
Events Fog , Rain    
Averages and records for this station are not official NWS values.
T = Trace of Precipitation, MM = Missing Value Source: Averaged Metar Reports

Daily Weather History Graph

Daily Weather History Graph

Search for Another Location

Airport or City:

Trip Planner

Search our weather history database for the weather conditions in past years. The results will help you decide how hot, cold, wet, or windy it might be!

Date:

Astronomy

May. 24, 2014 Rise Set
Actual Time 5:14 AM CST 5:52 PM CST
Civil Twilight 4:52 AM CST 6:15 PM CST
Nautical Twilight 4:25 AM CST 6:41 PM CST
Astronomical Twilight 3:58 AM CST 7:08 PM CST
Moon 1:56 AM CST (5/24) 2:29 PM CST (5/24)
Length of Visible Light 13h 23m
Length of Day
12h 38m
Waning Crescent, 17% of the Moon is Illuminated
May 24
Waning Crescent
May 28
New
Jun 5
First Quarter
Jun 12
Full
Jun 19
Last Quarter

Hourly Weather History & Observations

Time (CST) Temp. Heat Index Dew Point Humidity Pressure Visibility Wind Dir Wind Speed Gust Speed Precip Events Conditions
12:00 AM 71 °F - 63 °F 68% 29.87 in 12 mi East 4.6 mph - -   Partly Cloudy
12:00 AM 71.6 °F - 62.6 °F 73% 30.03 in - East 4.6 mph - N/A   Clear
1:00 AM 71.6 °F - 62.6 °F 73% 30.01 in - NNE 2.3 mph - N/A   Clear
2:00 AM 69.8 °F - 62.6 °F 78% 30.00 in - NNW 4.6 mph - N/A   Clear
3:00 AM 69 °F - 62 °F 72% 29.84 in 12 mi NNE 4.6 mph - -   Partly Cloudy
3:00 AM 69.8 °F - 62.6 °F 78% 29.98 in - NNE 4.6 mph - N/A   Clear
4:00 AM 68.0 °F - 60.8 °F 78% 29.98 in - NE 5.8 mph - N/A   Clear
5:00 AM 69.8 °F - 60.8 °F 73% 29.99 in - ENE 4.6 mph - N/A   Clear
6:00 AM 69.8 °F - 60.8 °F 73% 30.00 in 6.2 mi NE 6.9 mph - N/A   Mostly Cloudy
7:00 AM 75.2 °F - 62.6 °F 65% 30.03 in 6.2 mi ENE 5.8 mph - N/A   Mostly Cloudy
8:00 AM 78.8 °F - 62.6 °F 57% 30.04 in 6.2 mi ENE 10.4 mph - N/A   Mostly Cloudy
9:00 AM 80 °F - 63 °F 46% 29.90 in 12 mi East 9.2 mph - -   Scattered Clouds
9:00 AM 80.6 °F 81.8 °F 62.6 °F 54% 30.05 in 6.2 mi East 9.2 mph - N/A   Scattered Clouds
10:00 AM 80.6 °F 81.8 °F 62.6 °F 54% 30.04 in 6.2 mi ESE 11.5 mph - N/A   Scattered Clouds
11:00 AM 84.2 °F 84.4 °F 60.8 °F 45% 30.02 in 6.2 mi ESE 8.1 mph - N/A   Scattered Clouds
12:00 PM 79 °F - 67 °F 57% 29.85 in 12 mi SW 9.2 mph - -   Mostly Cloudy
12:00 PM 78.8 °F - 66.2 °F 65% 30.00 in 6.2 mi SW 9.2 mph - N/A   Scattered Clouds
12:26 PM 78.8 °F - 68.0 °F 69% 30.00 in 6.2 mi WSW 9.2 mph - N/A Rain Rain
1:00 PM 73.4 °F - 50.0 °F 44% - 5.0 mi NNW 9.2 mph - N/A Fog , Rain Fog
2:00 PM 71.6 °F - 68.0 °F 88% 29.98 in 6.2 mi SSW 6.9 mph - N/A Fog Patches of Fog
3:00 PM 71 °F - 68 °F 86% 29.85 in 12 mi West 5.8 mph - -   Scattered Clouds
3:00 PM 69.8 °F - 68.0 °F 94% 29.97 in 6.2 mi West 5.8 mph - N/A   Mostly Cloudy
5:00 PM 73.4 °F - 68.0 °F 83% 29.99 in 6.2 mi SW 3.5 mph - N/A   Mostly Cloudy
6:00 PM 71 °F - 67 °F 83% 29.88 in 12 mi Calm Calm - -  
6:00 PM 69.8 °F - 66.2 °F 88% 30.01 in 6.2 mi Calm Calm - N/A   Mostly Cloudy
7:00 PM 69.8 °F - 66.2 °F 88% 30.01 in 6.2 mi NW 2.3 mph - N/A   Scattered Clouds
8:00 PM 69.8 °F - 66.2 °F 88% 30.01 in - NW 2.3 mph - N/A   Clear
9:00 PM 70 °F - 63 °F 72% 29.88 in 12 mi ENE 6.9 mph - -  
9:00 PM 69.8 °F - 62.6 °F 78% 30.03 in - ENE 6.9 mph - N/A   Clear
10:00 PM 69.8 °F - 60.8 °F 73% 30.04 in - ESE 6.9 mph - N/A   Clear
11:00 PM 68.0 °F - 62.6 °F 83% 30.04 in - ENE 2.3 mph - N/A   Clear